| time (UTC) | temp F | wind direction | speed knots | gust knots | rain 1hr in | rain 24hr in | rain mn in | humidity % | barometer mb |
| 20260504211618 | 71 | 165 | 5.2 | 12.2 | 0.00 | 0.00 | 0.00 | 31 | 1006.0 |
| 20260504210046 | 71 | 156 | 4.3 | 12.2 | 0.00 | 0.00 | 0.00 | 36 | 1006.2 |
| 20260504204542 | 71 | 157 | 4.3 | 14.8 | 0.00 | 0.00 | 0.00 | 32 | 1006.0 |
| 20260504203042 | 71 | 159 | 6.1 | 13.0 | 0.00 | 0.00 | 0.00 | 31 | 1006.1 |
| 20260504201539 | 71 | 146 | 5.2 | 13.9 | 0.00 | 0.00 | 0.00 | 33 | 1006.2 |
| 20260504200038 | 72 | 225 | 5.2 | 13.9 | 0.00 | 0.00 | 0.00 | 33 | 1006.2 |
| 20260504194542 | 71 | 127 | 6.1 | 13.9 | 0.00 | 0.00 | 0.00 | 35 | 1006.1 |
| 20260504193035 | 70 | 172 | 7.0 | 14.8 | 0.00 | 0.00 | 0.00 | 32 | 1006.3 |
| 20260504191536 | 70 | 180 | 6.1 | 21.7 | 0.00 | 0.00 | 0.00 | 34 | 1006.4 |
| 20260504190032 | 71 | 138 | 6.1 | 13.0 | 0.00 | 0.00 | 0.00 | 34 | 1006.4 |
| 20260504184543 | 70 | 163 | 7.8 | 15.6 | 0.00 | 0.00 | 0.00 | 33 | 1006.5 |
| 20260504183028 | 70 | 192 | 7.0 | 18.2 | 0.00 | 0.00 | 0.00 | 34 | 1006.5 |
| 20260504181531 | 68 | 140 | 6.1 | 15.6 | 0.00 | 0.00 | 0.00 | 35 | 1006.6 |
| 20260504180027 | 70 | 183 | 8.7 | 17.4 | 0.00 | 0.00 | 0.00 | 32 | 1006.7 |
| 20260504174524 | 70 | 172 | 7.0 | 13.0 | 0.00 | 0.00 | 0.00 | 35 | 1006.7 |
| 20260504173021 | 69 | 148 | 7.8 | 22.6 | 0.00 | 0.00 | 0.00 | 34 | 1006.6 |
| 20260504171523 | 69 | 134 | 9.6 | 19.1 | 0.00 | 0.00 | 0.00 | 33 | 1006.9 |
| 20260504081544 | 39 | 117 | 0.0 | 1.7 | 0.00 | 0.00 | 0.00 | 76 | 1010.0 |
| 20260504050021 | 34 | 229 | 0.0 | 0.0 | 0.00 | 0.00 | 0.00 | 82 | 1010.1 |
| 20260504044516 | 34 | 229 | 0.0 | 0.0 | 0.00 | 0.00 | 0.00 | 82 | 1010.1 |
| 20260504043015 | 34 | 229 | 0.0 | 0.0 | 0.00 | 0.00 | 0.00 | 80 | 1010.0 |
| 20260504041510 | 34 | 229 | 0.0 | 0.9 | 0.00 | 0.00 | 0.00 | 81 | 1010.1 |
| 20260504040007 | 34 | 229 | 0.0 | 0.0 | 0.00 | 0.00 | 0.00 | 81 | 1010.0 |
| 20260504034506 | 34 | 229 | 0.0 | 1.7 | 0.00 | 0.02 | 0.00 | 80 | 1009.8 |
| 20260504033004 | 35 | 229 | 0.0 | 0.0 | 0.00 | 0.02 | 0.00 | 78 | 1009.8 |
| 20260504031505 | 35 | 229 | 0.0 | 0.0 | 0.00 | 0.02 | 0.00 | 78 | 1009.7 |
| 20260504030002 | 36 | 229 | 0.0 | 0.0 | 0.00 | 0.02 | 0.00 | 76 | 1009.6 |
| 20260504024605 | 36 | 229 | 0.0 | 0.0 | 0.00 | 0.02 | 0.00 | 75 | 1009.7 |
| 20260504023058 | 37 | 229 | 0.0 | 0.0 | 0.00 | 0.02 | 0.00 | 75 | 1009.7 |
| 20260504021557 | 37 | 229 | 0.0 | 1.7 | 0.00 | 0.02 | 0.00 | 72 | 1009.8 |
| 20260504021527 | 37 | 229 | 0.0 | 1.7 | 0.00 | 0.02 | 0.00 | 72 | 1009.8 |
| 20260504020109 | 38 | 229 | 0.0 | 0.0 | 0.00 | 0.02 | 0.00 | 74 | 1009.6 |
| 20260504014553 | 40 | 229 | 0.0 | 0.0 | 0.00 | 0.02 | 0.00 | 64 | 1009.6 |
| 20260504013052 | 40 | 229 | 0.0 | 0.0 | 0.00 | 0.02 | 0.00 | 63 | 1009.5 |
| 20260504011553 | 41 | 229 | 0.0 | 0.9 | 0.00 | 0.02 | 0.00 | 61 | 1009.4 |
| 20260504010054 | 43 | 229 | 0.0 | 2.6 | 0.00 | 0.02 | 0.00 | 59 | 1009.2 |
| 20260504004552 | 44 | 229 | 0.0 | 1.7 | 0.00 | 0.02 | 0.00 | 55 | 1009.0 |
| 20260504003053 | 44 | 130 | 0.0 | 2.6 | 0.00 | 0.02 | 0.00 | 54 | 1008.8 |
| 20260504001554 | 45 | 196 | 0.9 | 6.1 | 0.00 | 0.02 | 0.00 | 52 | 1008.8 |
| 20260504000051 | 46 | 194 | 0.9 | 7.0 | 0.00 | 0.02 | 0.00 | 52 | 1008.6 |
| 20260503234612 | 47 | 212 | 0.0 | 8.7 | 0.00 | 0.06 | 0.00 | 49 | 1008.4 |
| 20260503233051 | 48 | 238 | 1.7 | 8.7 | 0.00 | 0.06 | 0.00 | 47 | 1008.4 |
| 20260503231549 | 48 | 248 | 4.3 | 10.4 | 0.00 | 0.06 | 0.00 | 47 | 1008.1 |
| 20260503230048 | 49 | 182 | 3.5 | 10.4 | 0.00 | 0.06 | 0.00 | 46 | 1008.1 |
| 20260503224548 | 49 | 194 | 1.7 | 9.6 | 0.00 | 0.10 | 0.00 | 46 | 1007.9 |
| 20260503223047 | 49 | 210 | 2.6 | 9.6 | 0.00 | 0.10 | 0.00 | 46 | 1007.7 |
| 20260503221556 | 49 | 190 | 3.5 | 13.0 | 0.00 | 0.10 | 0.00 | 43 | 1007.6 |
| 20260503220047 | 51 | 181 | 2.6 | 8.7 | 0.00 | 0.10 | 0.00 | 42 | 1007.4 |
| 20260503214545 | 50 | 188 | 2.6 | 8.7 | 0.00 | 0.14 | 0.00 | 46 | 1007.4 |
| 20260503213044 | 50 | 211 | 2.6 | 10.4 | 0.00 | 0.14 | 0.00 | 43 | 1007.3 |